Weather observations for the past three days for
Sherman/Denison, Grayson County Airport
Imperial (Metric)
Date Time (cdt) Wind (mph) Vis. (mi.) Weather Sky Cond. Temperature (ºF) Relative Humidity Wind Chill (°F) Heat Index (°F) Pressure Precipitation (in)
Air Dwpt 6 hour altimeter (in) sea level (mb) 1 hr 3 hr 6 hr
Max. Min.
06 06:50 N 12 10.00 Overcast BKN007 OVC012 50 48.2 94% 46 29.93 0.0
06 06:35 N 12 7.00 Overcast BKN007 OVC013 50 48.6 95% 46 29.92 0.0
06 06:15 N 13 6.00 Fog/Mist OVC011 50.2 48.2 93% 29.92 0.0
06 05:55 N 14 6.00 Fog/Mist OVC011 51.3 47.7 88% 29.92 0.0
06 05:35 N 13 10.00 Overcast OVC012 51.8 47.1 84% 29.91 0.0
06 05:15 N 12 10.00 Overcast OVC012 52.3 46.9 82% 29.9 0.0
06 04:55 N 9 10.00 Overcast BKN014 OVC024 52.3 47.1 83% 29.89 0.0
06 04:35 N 12 10.00 Overcast BKN016 OVC025 52.5 47.1 82% 29.88 0.0
06 04:15 N 9 10.00 Overcast BKN017 OVC026 52.9 46.9 80% 29.87 0.0
06 03:55 N 10 10.00 Overcast BKN017 OVC028 53.1 46.8 79% 29.87 0.0
06 03:35 N 13 10.00 Overcast BKN017 OVC029 53.2 46.8 79% 29.86 0.0
06 03:15 N 12 10.00 Overcast FEW018 OVC028 53.4 46.8 78% 29.85 0.0
06 02:55 NE 10 10.00 Overcast OVC029 53.4 46.6 78% 29.85 0.0
06 02:35 NE 12 10.00 Overcast OVC030 53.4 46.2 77% 29.84 0.0
06 02:15 N 13 10.00 Overcast OVC030 54 46.9 77% 29.85 0.0
06 01:55 NE 12 10.00 Overcast OVC030 54.1 47.1 77% 29.85 0.0
06 01:35 N 13 10.00 Overcast BKN032 OVC041 54.3 46.9 76% 29.85 0.0
06 01:15 N 10 10.00 Overcast BKN033 OVC041 54.7 47.1 76% 29.85 0.0
06 00:55 N 10 10.00 Overcast FEW019 OVC033 55 47.7 68.2 55 76% 29.86 0.0
06 00:35 N 12 10.00 Overcast SCT019 OVC033 55.4 48.2 77% 29.86 0.0
06 00:15 N 10 10.00 Overcast FEW018 OVC034 55.4 48.4 77% 29.85 0.0
05 23:55 N 8 10.00 Overcast FEW018 OVC035 55.6 49.1 79% 29.85 0.0
05 23:35 N 13 10.00 Overcast FEW018 OVC037 55.6 49.3 80% 29.85 0.0
05 23:15 N 15 10.00 Overcast FEW017 OVC038 55.9 49.5 79% 29.85 0.0
05 22:55 N 12 10.00 Overcast OVC017 57 51.1 81% 29.84 0.0
05 22:35 N 10 10.00 Overcast OVC016 57.6 51.8 81% 29.85 0.0
05 22:15 N 14 10.00 Overcast OVC015 58.1 52.3 81% 29.84 0.0
05 21:55 N 9 10.00 Overcast OVC015 58.6 53.6 83% 29.82 0.0
05 21:35 N 13 10.00 Overcast OVC015 59 54.1 84% 29.8 0.0
05 21:15 N 10 10.00 Overcast BKN015 OVC190 59.2 54 83% 29.79 0.0
05 20:55 N 10 10.00 Overcast BKN016 BKN190 OVC240 60.1 54.7 82% 29.78 0.0
05 20:35 N 10 10.00 Overcast BKN016 OVC190 61 55.4 82% 29.77 0.0
05 20:15 N 14 8.00 Mostly Cloudy BKN190 62.1 56.3 82% 29.75 0.0
05 19:55 N 14 9.00 Partly Cloudy SCT200 64.6 57.7 79% 29.73 0.0
05 19:35 N 13 G 20 8.00 Partly Cloudy SCT210 65.8 58.8 78% 29.72 0.0
05 19:15 N 10 9.00 Mostly Cloudy BKN210 67.1 59.4 76% 29.73 0.0
05 18:50 N 12 10.00 Fair CLR 68 60.8 78% 29.73 0.0
05 17:50 NW 14 10.00 Fair CLR 75.2 64.4 69% 77 29.7 0.0
05 14:50 SW 15 10.00 Fair CLR 80.6 68 66% 83 29.67 0.0
05 13:50 SW 15 10.00 Fair CLR 80.6 68 66% 83 29.67 0.0
05 12:50 SW 20 G 25 10.00 Fair CLR 80.6 66.2 62% 83 29.67 0.0
05 11:50 S 18 10.00 Fair CLR 77 68 74% 79 29.66 0.0
05 10:50 S 16 G 26 10.00 Fair CLR 77 68 74% 79 29.65 0.0
05 09:50 SW 23 10.00 Fair and Breezy CLR 75.2 68 78% 76 29.66 0.0
05 08:50 S 17 G 30 10.00 Mostly Cloudy SCT020 BKN170 73.4 66.2 78% 29.65 0.0
05 07:50 S 17 10.00 Mostly Cloudy BKN170 BKN250 69.8 66.2 88% 29.64 0.0
05 06:50 S 17 10.00 Fair CLR 69.8 66.2 88% 29.62 0.0
05 06:35 S 18 G 24 10.00 Overcast BKN170 OVC260 70.3 65.7 85% 29.62 0.0
05 06:15 S 20 G 25 10.00 Overcast BKN160 OVC260 70.7 65.7 84% 29.62 0.0
05 05:55 S 22 G 30 10.00 Overcast and Breezy BKN160 OVC250 71.1 65.7 83% 29.61 0.0
05 05:35 S 22 G 28 10.00 Overcast and Breezy OVC160 71.1 65.7 83% 29.61 0.0
05 05:15 S 21 G 28 10.00 Overcast and Breezy OVC170 71.1 65.7 83% 29.62 0.0
05 04:55 S 24 G 30 10.00 A Few Clouds and Breezy FEW170 71.2 65.7 83% 29.61 0.0
05 04:35 S 18 9.00 Partly Cloudy FEW180 SCT250 70.9 65.5 83% 29.61 0.0
05 04:15 S 22 G 29 9.00 A Few Clouds and Breezy FEW180 71.2 65.5 82% 29.62 0.0
05 03:55 S 21 G 30 10.00 Fair and Breezy CLR 71.6 65.3 81% 29.62 0.0
05 03:35 S 20 G 29 10.00 Fair CLR 71.6 65.1 80% 29.62 0.0
05 03:15 S 21 10.00 Fair and Breezy CLR 72 64.8 78% 29.62 0.0
05 02:55 S 18 G 25 10.00 Fair CLR 72.1 64.4 77% 29.63 0.0
05 02:35 S 21 10.00 A Few Clouds and Breezy FEW190 72.1 64 76% 29.64 0.0
05 02:15 S 18 G 26 10.00 Mostly Cloudy BKN190 72 63.9 76% 29.65 0.0
05 01:55 S 20 10.00 Partly Cloudy SCT190 72.3 63.7 74% 29.66 0.0
05 01:35 S 17 10.00 A Few Clouds FEW190 72.3 63.5 74% 29.66 0.0
05 01:15 S 17 G 25 10.00 Partly Cloudy SCT200 72.7 63.3 73% 29.67 0.0
05 00:55 S 21 10.00 Overcast and Breezy OVC200 72.9 63.3 77.2 72.5 72% 29.67 0.0
05 00:35 S 18 10.00 Overcast OVC210 72.9 63.3 72% 29.67 0.0
05 00:15 S 22 G 29 10.00 Mostly Cloudy and Breezy BKN210 73 63.1 71% 29.68 0.0
04 23:55 S 20 10.00 Fair CLR 73 63.1 71% 29.68 0.0
04 23:35 S 21 G 28 10.00 Fair and Breezy CLR 72.9 63 71% 29.68 0.0
04 23:15 S 17 G 28 10.00 Fair CLR 72.9 62.8 71% 29.69 0.0
04 22:55 S 16 10.00 Fair CLR 72.7 62.8 71% 29.69 0.0
04 22:35 S 18 G 23 10.00 Fair CLR 72.9 62.8 71% 29.69 0.0
04 22:15 S 16 10.00 Fair CLR 72.9 62.6 70% 29.7 0.0
04 21:55 S 14 10.00 Fair CLR 72.7 62.2 70% 29.7 0.0
04 21:35 S 16 10.00 Fair CLR 73 62.2 69% 29.7 0.0
04 21:15 S 21 10.00 Fair and Breezy CLR 73.6 62.2 68% 29.69 0.0
04 20:55 S 16 10.00 Fair CLR 73.4 61.9 67% 29.69 0.0
04 20:35 S 14 10.00 Fair CLR 73.8 62.1 67% 29.69 0.0
04 20:15 S 13 10.00 Fair CLR 74.3 62.1 66% 29.68 0.0
04 19:55 S 15 10.00 Fair CLR 75 62.2 65% 77 29.68 0.0
04 19:35 S 17 10.00 Fair CLR 75.9 62.1 62% 78 29.69 0.0
04 19:15 S 16 10.00 Fair CLR 76.6 62.2 61% 78 29.7 0.0
04 18:50 S 16 10.00 Fair CLR 77 62.6 61% 79 29.69 0.0
04 17:50 S 18 10.00 Fair CLR 80.6 62.6 54% 82 29.72 0.0
04 16:50 S 18 G 26 10.00 Fair CLR 80.6 60.8 51% 81 29.73 0.0
04 15:50 S 21 G 26 10.00 Fair and Breezy CLR 80.6 60.8 51% 81 29.75 0.0
04 14:50 S 21 G 26 10.00 Fair and Breezy CLR 80.6 59 48% 81 29.79 0.0
04 13:50 S 22 G 28 10.00 Fair and Breezy CLR 78.8 59 51% 80 29.82 0.0
04 12:50 SW 21 G 28 10.00 Fair and Breezy CLR 75.2 55.4 50% 78 29.85 0.0
04 11:50 S 21 G 28 10.00 Fair and Breezy CLR 75.2 53.6 47% 78 29.88 0.0
04 09:50 S 21 G 28 10.00 Fair and Breezy CLR 69.8 53.6 57% 29.9 0.0
04 08:50 S 17 G 25 9.00 Fair CLR 66.2 53.6 64% 29.91 0.0
04 07:50 S 17 G 24 10.00 Fair CLR 64.4 51.8 64% 29.91 0.0
04 07:00 S 16 9.00 Fair CLR 60.8 51.8 72% 29.9 0.0
04 06:35 S 16 10.00 Fair CLR 61.5 52.3 72% 29.9 0.0
04 06:15 S 16 10.00 Fair CLR 61.7 52 71% 29.89 0.0
04 05:55 S 15 10.00 Fair CLR 62.1 51.4 68% 29.9 0.0
04 05:35 S 15 10.00 Fair CLR 62.2 50.7 66% 29.9 0.0
04 05:15 S 16 10.00 Fair CLR 62.8 50 63% 29.91 0.0
04 04:55 S 15 10.00 Fair CLR 62.8 49.1 61% 29.9 0.0
04 04:35 S 15 10.00 Fair CLR 63 48.6 60% 29.91 0.0
04 04:15 S 13 10.00 Fair CLR 62.6 48.6 60% 29.91 0.0
04 03:55 S 13 10.00 Fair CLR 62.8 48.7 60% 29.92 0.0
04 03:35 S 13 10.00 Fair CLR 62.1 49.1 63% 29.92 0.0
04 03:15 S 12 10.00 Fair CLR 62.2 48.9 62% 29.92 0.0
04 02:55 S 12 10.00 Fair CLR 61.3 49.3 65% 29.93 0.0
04 02:35 S 10 10.00 Fair CLR 61 49.3 66% 29.93 0.0
04 02:15 S 10 10.00 Fair CLR 60.6 49.3 66% 29.94 0.0
04 01:55 S 10 10.00 Fair CLR 60.8 48.9 65% 29.95 0.0
04 01:35 S 10 10.00 Fair CLR 60.4 48.7 66% 29.96 0.0
04 01:15 S 9 10.00 A Few Clouds FEW250 60.3 48.6 65% 29.97 0.0
04 00:55 S 9 10.00 A Few Clouds FEW250 62.2 48 77 62.2 60% 29.98 0.0
04 00:35 S 10 10.00 Fair CLR 62.6 48 59% 29.98 0.0
04 00:15 S 10 10.00 Fair CLR 62.2 48.2 60% 29.98 0.0
03 23:55 S 10 10.00 Fair CLR 62.6 48 59% 29.99 0.0
03 23:35 S 10 10.00 Fair CLR 62.4 48 59% 29.99 0.0
03 23:15 S 10 10.00 Fair CLR 62.6 47.7 58% 29.99 0.0
03 22:55 S 10 10.00 Fair CLR 63.5 47.3 56% 30 0.0
03 22:35 S 12 10.00 Fair CLR 63.7 47.1 55% 30 0.0
03 22:15 S 10 10.00 Fair CLR 65.1 46.8 52% 29.99 0.0
03 21:55 S 10 10.00 Fair CLR 64.6 47.3 54% 29.99 0.0
03 21:35 S 10 10.00 Fair CLR 64.8 47.3 53% 29.99 0.0
03 21:15 S 10 10.00 Fair CLR 65.3 47.5 53% 29.99 0.0
03 20:55 S 8 10.00 Fair CLR 64.6 47.8 55% 29.98 0.0
03 20:35 S 9 10.00 Fair CLR 65.5 47.7 53% 29.98 0.0
03 20:15 S 7 10.00 Fair CLR 67.6 47.8 49% 29.98 0.0
03 19:55 S 9 10.00 Fair CLR 72.3 47.8 42% 29.98 0.0
03 19:35 S 8 10.00 Fair CLR 74.3 48.2 40% 29.98 0.0
03 19:15 SW 8 10.00 Fair CLR 75.9 47.8 37% 78 29.98 0.0
03 18:50 SW 9 10.00 Fair CLR 77 46.4 34% 78 29.98 0.0
03 17:50 SW 12 10.00 Fair CLR 78.8 48.2 34% 79 30 0.0
03 16:50 SW 17 10.00 Fair CLR 80.6 46.4 30% 80 30.01 0.0
03 15:50 SW 14 G 20 10.00 Fair CLR 80.6 48.2 32% 80 30.04 0.0
03 14:50 SW 15 G 23 10.00 A Few Clouds FEW080 82.4 50 32% 81 30.07 0.0
03 12:50 SW 12 10.00 Fair CLR 77 53.6 44% 78 30.14 0.0
03 11:50 SW 12 10.00 Fair CLR 77 53.6 44% 78 30.14 0.0
03 10:50 SW 16 10.00 Fair CLR 73.4 51.8 47% 30.15 0.0
03 09:50 SW 14 10.00 Fair CLR 69.8 51.8 53% 30.15 0.0
03 08:50 SW 12 10.00 Fair CLR 64.4 50 60% 30.14 0.0
Date Time (cdt) Wind (mph) Vis. (mi.) Weather Sky Cond. Air Dwpt Max. Min. Relative Humidity Wind Chill (°F) Heat Index (°F) altimeter (in) sea level (mb) 1 hr 3 hr 6 hr
6 hour
Temperature (ºF) Pressure Precipitation (in)